[[{"header":{"parameterUnit":"m.s-1","parameterCategory":1,"la1":30.2991,"la2":30.254,"lo1":-89.0895,"lo2":-89.0444,"dy":0.0017,"dx":0.0017,"nx":28,"ny":28,"refTime":"2023-10-12T09:00:00:Z","depth":0,"parameterNumber":2,"parameterNumberName":"U-component_of_WINDS"},"data":[0,0,0,0,0,0,0,0,0,0,0,0,0,0,0,0,0,0,0,0,0,0,0,0,0,0,0,0,0,0,0,0,0,0,0,0,0,0,0,0,0,0,0,0,0,0,0,0,0,0,0,0,0,0,0,0,0,0,0.397,0.3969,0,0.3932,0.3932,0.3932,0.3913,0.3913,0.3913,0.3913,0.3875,0.3874,0.3873,0,0,0,0,0,0,0,0,0,0,0,0,0,0.4025,0.4024,0.397,0.3969,0.3969,0.3933,0.3932,0.3932,0.3913,0.3913,0.3913,0.3913,0.3875,0.3874,0.3873,0,0,0,0,0,0,0,0,0,0,0,0,0,0.3996,0.4024,0.397,0.3955,0.3954,0.3933,0.3932,0.3931,0.3913,0.3913,0.3913,0.3913,0.3875,0.3874,0.3872,0.3863,0,0,0.3868,0.3867,0,0,0,0,0,0,0,0,0.3997,0.3994,0.3958,0.3956,0.3954,0.3928,0.3937,0.3908,0.3913,0.3929,0.3913,0.3913,0.3892,0.3889,0.3882,0.3861,0.3859,0.3868,0.3867,0.3866,0.3866,0,0,0,0,0,0,0,0.4,0.3995,0.3955,0.3957,0.3955,0.3951,0.3947,0.3932,0.3911,0.3927,0.3926,0.3922,0.3891,0.3884,0.3881,0.3859,0.3868,0.3866,0.3865,0.3865,0.3828,0.3828,0,0,0,0,0,0,0.4004,0.3997,0.3956,0.3954,0.3976,0.395,0.3945,0.3936,0.3911,0.3907,0.3922,0.3921,0.3887,0.3883,0.388,0.3867,0.3866,0.3865,0.3864,0.3828,0.3828,0.3828,0,0,0,0,0,0,0.4005,0.4,0.3958,0.3975,0.3969,0.3949,0.3939,0.3935,0.3928,0.3907,0.3903,0.3918,0.3886,0.3882,0.3867,0.3865,0.3864,0.3862,0.3828,0.3828,0.3828,0.3841,0,0,0,0,0,0,0.4007,0.4001,0.3997,0.3975,0.3968,0.3946,0.3939,0.3935,0.3925,0.3924,0.3902,0.3899,0.3886,0.387,0.3866,0.3863,0.3861,0.3828,0.3828,0.3828,0.3841,0.3842,0.3843,0,0,0,0,0,0.4009,0.4002,0.3997,0.3992,0.3963,0.3946,0.3942,0.3928,0.3925,0.3921,0.3908,0.3899,0.3867,0.3868,0.3864,0.3861,0.3828,0.3828,0.3828,0.3841,0.3842,0.3843,0,0,0,0,0,0,0.4024,0.3999,0.3993,0.3979,0.3965,0.3943,0.3937,0.3929,0.3915,0.3914,0.3897,0.3892,0.3879,0.3869,0.3871,0.3851,0.3847,0.3846,0.3858,0.3858,0.3859,0.3862,0.386,0,0,0,0,0,0.4026,0.4014,0.3993,0.3982,0.3975,0.3958,0.3949,0.394,0.3924,0.3918,0.3903,0.3889,0.3875,0.3866,0.3852,0.384,0.3835,0.3835,0.3836,0.3837,0.3836,0.3829,0.3829,0.3828,0.3828,0.3828,0,0,0.4029,0.4014,0.4008,0.3985,0.3973,0.3961,0.3953,0.394,0.3931,0.3916,0.3901,0.389,0.3872,0.3859,0.3852,0.385,0.3835,0.3837,0.3838,0.3836,0.3829,0.3829,0.3829,0.3828,0.3828,0.3828,0,0,0.4029,0.4017,0.4007,0.3995,0.3977,0.3965,0.3963,0.3942,0.3934,0.3919,0.3908,0.3897,0.3873,0.3861,0.3852,0.3849,0.384,0.3845,0.3848,0.3841,0.3841,0.3841,0.384,0.384,0.3844,0.3844,0.3844,0,0.4036,0.4017,0.4003,0.3991,0.3981,0.3968,0.3958,0.3947,0.3925,0.3919,0.3916,0.3887,0.3874,0.3858,0.3857,0.385,0.3847,0.3847,0.3843,0.3842,0.3842,0.3841,0.384,0.3845,0.3845,0.3845,0.3845,0,0.4026,0.4014,0.4008,0.3987,0.3977,0.3966,0.395,0.3942,0.3933,0.3922,0.3907,0.3891,0.3874,0.387,0.3861,0.3852,0.3851,0.3846,0.3842,0.3843,0.3841,0.3841,0.3846,0.3845,0.3845,0.3845,0,0,0.4034,0.4006,0.4004,0.3995,0.3974,0.3964,0.3953,0.3936,0.3929,0.3915,0.3905,0.3886,0.3882,0.3871,0.3861,0.3855,0.3854,0.3851,0.385,0.3852,0.3843,0.3846,0.3846,0.3848,0.3848,0.3848,0.3844,0,0.4031,0.401,0.3997,0.3981,0.397,0.3957,0.3947,0.3933,0.3923,0.3911,0.3899,0.3886,0.3881,0.3875,0.3868,0.3855,0.3851,0.3855,0.3839,0.3838,0.3843,0.3845,0.3849,0.3846,0.3843,0.3843,0.3843,0,0.4024,0.4011,0.3994,0.3975,0.3969,0.3961,0.3945,0.3934,0.3918,0.3911,0.39,0.389,0.3878,0.3875,0.3858,0.3861,0.3853,0.3846,0.3846,0.3843,0.384,0.3842,0.3844,0.3844,0.3842,0.3842,0.3842,0,0.4032,0.4009,0.3996,0.3989,0.3966,0.396,0.3951,0.3935,0.3926,0.3912,0.3906,0.3891,0.3883,0.3872,0.3858,0.3857,0.3842,0.3838,0.3836,0.3836,0.3833,0.3833,0.3833,0.3829,0.3829,0.3829,0.3829,0,0.4029,0.402,0.3999,0.3991,0.398,0.3965,0.3955,0.3944,0.393,0.392,0.3908,0.3899,0.3882,0.387,0.386,0.3847,0.3843,0.3837,0.3834,0.3838,0.3839,0.3832,0.3832,0.3828,0.3828,0.3828,0.3829,0,0.4035,0.4021,0.4006,0.3986,0.3981,0.3974,0.3957,0.3949,0.3938,0.3925,0.3921,0.3904,0.389,0.3875,0.3856,0.3849,0.3837,0.3833,0.3842,0.384,0.3839,0.3839,0.3835,0.3833,0.383,0.383,0.383,0,0.4035,0.4027,0.4006,0.3999,0.3989,0.3977,0.3968,0.3954,0.3945,0.3927,0.3921,0.3906,0.3893,0.3872,0.3857,0.3843,0.3839,0.3838,0.3836,0.384,0.3838,0.3839,0.3838,0.3839,0.3839,0.3839,0.3839,0,0.4035,0.4029,0.4016,0.4001,0.3991,0.3978,0.3965,0.396,0.3943,0.3933,0.3919,0.3909,0.389,0.3876,0.386,0.385,0.3842,0.384,0.3838,0.3842,0.3847,0.3844,0.3844,0.384,0.384,0.384,0.384,0.384,0.4037,0.403,0.4014,0.4001,0.399,0.3978,0.397,0.3958,0.3946,0.3929,0.3921,0.3907,0.3892,0.3869,0.386,0.3848,0.3846,0.3844,0.3843,0.3843,0.3844,0.3849,0.3846,0.3845,0.3845,0.3845,0.3845,0,0.4037,0.4026,0.4014,0.3997,0.3986,0.398,0.3965,0.3957,0.3944,0.3931,0.3919,0.3903,0.3889,0.3874,0.3859,0.3853,0.3849,0.3849,0.385,0.3847,0.3847,0.385,0.3853,0.3853,0.3853,0.3853,0.3853,0.3853,0.4035,0.4023,0.4014,0.3996,0.3985,0.3971,0.3964,0.3953,0.3942,0.3925,0.3913,0.3904,0.389,0.3874,0.3861,0.3857,0.3852,0.3853,0.3848,0.3848,0.3847,0.3847,0.3849,0.3853,0.3853,0.385,0.385,0.385]},{"header":{"parameterUnit":"m.s-1","parameterCategory":1,"la1":30.2991,"la2":30.254,"lo1":-89.0895,"lo2":-89.0444,"dy":0.0017,"dx":0.0017,"nx":28,"ny":28,"refTime":"2023-10-12T09:00:00:Z","depth":0,"parameterNumber":3,"parameterNumberName":"V-component_of_WINDS"},"data":[0,0,0,0,0,0,0,0,0,0,0,0,0,0,0,0,0,0,0,0,0,0,0,0,0,0,0,0,0,0,0,0,0,0,0,0,0,0,0,0,0,0,0,0,0,0,0,0,0,0,0,0,0,0,0,0,0,0,-5.1115,-5.1116,0,-5.1203,-5.1204,-5.1205,-5.117,-5.1168,-5.1166,-5.1164,-5.1249,-5.1253,-5.1258,0,0,0,0,0,0,0,0,0,0,0,0,0,-5.0913,-5.0917,-5.1115,-5.1116,-5.1117,-5.1203,-5.1204,-5.1205,-5.1171,-5.1168,-5.1166,-5.1163,-5.1248,-5.1253,-5.1258,0,0,0,0,0,0,0,0,0,0,0,0,0,-5.1001,-5.0918,-5.1115,-5.111,-5.1111,-5.1203,-5.1204,-5.1206,-5.1171,-5.1168,-5.1165,-5.1162,-5.1246,-5.1252,-5.1259,-5.1359,0,0,-5.1278,-5.128,0,0,0,0,0,0,0,0,-5.0996,-5.1008,-5.111,-5.1111,-5.1112,-5.1173,-5.1164,-5.1257,-5.1172,-5.1148,-5.1164,-5.1161,-5.1226,-5.1234,-5.1257,-5.1363,-5.1366,-5.1278,-5.1282,-5.1285,-5.1287,0,0,0,0,0,0,0,-5.099,-5.1004,-5.115,-5.1111,-5.1112,-5.1103,-5.1112,-5.1182,-5.1203,-5.115,-5.1148,-5.1159,-5.1226,-5.1251,-5.1259,-5.1368,-5.1278,-5.1284,-5.1288,-5.129,-5.1561,-5.1564,0,0,0,0,0,0,-5.0984,-5.0999,-5.1147,-5.1152,-5.1045,-5.1109,-5.1119,-5.1156,-5.1202,-5.1206,-5.1161,-5.1157,-5.1242,-5.1251,-5.1261,-5.1383,-5.1285,-5.1291,-5.1294,-5.1558,-5.1562,-5.1565,0,0,0,0,0,0,-5.098,-5.0997,-5.1143,-5.1075,-5.1093,-5.1116,-5.1158,-5.1159,-5.1185,-5.1211,-5.1214,-5.1183,-5.124,-5.1253,-5.1335,-5.1385,-5.1293,-5.1299,-5.1553,-5.1559,-5.1564,-5.1625,0,0,0,0,0,0,-5.0974,-5.0996,-5.1035,-5.1076,-5.1097,-5.1217,-5.1161,-5.1163,-5.1196,-5.1191,-5.1232,-5.1236,-5.1238,-5.1326,-5.1342,-5.1392,-5.1304,-5.1549,-5.1556,-5.1562,-5.1619,-5.1632,-5.1643,0,0,0,0,0,-5.0967,-5.1047,-5.1037,-5.1055,-5.1146,-5.122,-5.1232,-5.1234,-5.12,-5.1239,-5.1256,-5.1235,-5.1377,-5.1335,-5.1352,-5.1405,-5.1546,-5.1554,-5.1561,-5.1613,-5.1629,-5.1642,0,0,0,0,0,0,-5.1009,-5.1053,-5.1042,-5.1138,-5.1176,-5.1214,-5.1263,-5.125,-5.1297,-5.129,-5.1289,-5.1299,-5.1385,-5.1403,-5.1355,-5.1505,-5.1456,-5.1468,-5.149,-5.1505,-5.1517,-5.1511,-5.1309,0,0,0,0,0,-5.103,-5.1087,-5.1122,-5.1204,-5.1223,-5.124,-5.1272,-5.1271,-5.1309,-5.1325,-5.1348,-5.1384,-5.1437,-5.1472,-5.1522,-5.1621,-5.163,-5.1666,-5.1678,-5.1688,-5.1698,-5.1752,-5.1769,-5.1591,-5.1591,-5.1591,0,0,-5.1072,-5.1104,-5.1139,-5.1213,-5.1242,-5.1301,-5.1254,-5.1317,-5.1361,-5.1334,-5.1414,-5.1433,-5.1473,-5.1565,-5.1606,-5.1583,-5.1749,-5.1698,-5.1705,-5.171,-5.1762,-5.1779,-5.1794,-5.1596,-5.1595,-5.1594,0,0,-5.1181,-5.121,-5.1282,-5.1313,-5.1359,-5.137,-5.1387,-5.1428,-5.144,-5.1521,-5.1503,-5.1553,-5.1644,-5.1675,-5.1702,-5.1825,-5.1807,-5.1841,-5.1903,-5.1957,-5.1971,-5.1983,-5.2027,-5.2043,-5.185,-5.1851,-5.1851,0,-5.1228,-5.1317,-5.132,-5.1387,-5.142,-5.14,-5.1473,-5.1502,-5.1561,-5.1584,-5.1557,-5.1672,-5.1698,-5.1797,-5.1828,-5.185,-5.187,-5.1836,-5.1969,-5.1981,-5.1993,-5.2035,-5.2051,-5.1854,-5.1854,-5.1854,-5.1853,0,-5.1373,-5.1435,-5.1488,-5.1548,-5.1587,-5.1656,-5.1669,-5.1707,-5.1703,-5.1717,-5.18,-5.1831,-5.1888,-5.1911,-5.1907,-5.201,-5.1994,-5.1968,-5.192,-5.2014,-5.2053,-5.2069,-5.186,-5.1859,-5.1858,-5.1857,0,0,-5.1509,-5.1572,-5.1591,-5.1619,-5.1669,-5.1716,-5.1785,-5.1842,-5.1876,-5.1917,-5.1974,-5.2053,-5.203,-5.2061,-5.206,-5.2107,-5.2203,-5.2075,-5.2076,-5.2098,-5.2319,-5.2339,-5.2358,-5.2192,-5.2195,-5.2197,-5.2316,0,-5.1621,-5.1744,-5.1749,-5.186,-5.1918,-5.1901,-5.196,-5.1997,-5.2012,-5.2062,-5.2078,-5.2134,-5.2099,-5.2118,-5.2164,-5.2182,-5.2247,-5.2173,-5.2244,-5.2246,-5.2234,-5.2378,-5.2399,-5.251,-5.2331,-5.2334,-5.2336,0,-5.1769,-5.1818,-5.1935,-5.1979,-5.2003,-5.2057,-5.2111,-5.2159,-5.22,-5.2208,-5.2244,-5.2237,-5.2306,-5.2256,-5.2351,-5.23,-5.2329,-5.2343,-5.2347,-5.2353,-5.2297,-5.2389,-5.2545,-5.2562,-5.236,-5.2358,-5.2357,0,-5.1857,-5.1952,-5.2035,-5.2059,-5.2112,-5.215,-5.2173,-5.2211,-5.2246,-5.2293,-5.2316,-5.2369,-5.2398,-5.244,-5.2447,-5.2409,-5.2542,-5.2492,-5.255,-5.255,-5.2578,-5.2576,-5.2742,-5.2597,-5.2597,-5.2597,-5.2596,0,-5.1982,-5.2055,-5.2076,-5.2127,-5.2207,-5.2213,-5.2292,-5.2312,-5.2347,-5.2401,-5.2389,-5.2439,-5.2446,-5.2497,-5.2503,-5.2581,-5.2594,-5.2602,-5.2603,-5.2603,-5.2602,-5.2622,-5.2615,-5.2601,-5.26,-5.2599,-5.2598,0,-5.2094,-5.2111,-5.22,-5.2244,-5.2257,-5.2314,-5.2351,-5.2399,-5.2413,-5.2482,-5.2498,-5.252,-5.2581,-5.2593,-5.2663,-5.2667,-5.2761,-5.2753,-5.2748,-5.2747,-5.2804,-5.2799,-5.2988,-5.3013,-5.2852,-5.2854,-5.2855,0,-5.2173,-5.2229,-5.2279,-5.2316,-5.2342,-5.24,-5.2436,-5.2444,-5.2482,-5.2535,-5.2577,-5.2637,-5.2685,-5.2783,-5.2804,-5.2858,-5.2852,-5.2915,-5.286,-5.286,-5.2854,-5.2851,-5.2857,-5.2925,-5.2927,-5.2929,-5.293,0,-5.2311,-5.2318,-5.2372,-5.243,-5.2474,-5.2519,-5.2562,-5.2592,-5.2606,-5.2649,-5.2712,-5.275,-5.2824,-5.2884,-5.2939,-5.2961,-5.2948,-5.2947,-5.2963,-5.2965,-5.2959,-5.2964,-5.2777,-5.2942,-5.2941,-5.294,-5.294,-5.2939,-5.2409,-5.2459,-5.2503,-5.2564,-5.2598,-5.2639,-5.2687,-5.2709,-5.2762,-5.2825,-5.2826,-5.2895,-5.2935,-5.3008,-5.3034,-5.3087,-5.3067,-5.3091,-5.3097,-5.3103,-5.3109,-5.2951,-5.3097,-5.3097,-5.3096,-5.3096,-5.3096,0,-5.2548,-5.2576,-5.2632,-5.2694,-5.2742,-5.2728,-5.2775,-5.2816,-5.2878,-5.2918,-5.2967,-5.304,-5.3098,-5.3125,-5.3182,-5.322,-5.3215,-5.3235,-5.3232,-5.3237,-5.3123,-5.3103,-5.3238,-5.3238,-5.3237,-5.3237,-5.3237,-5.3237,-5.2625,-5.2709,-5.2721,-5.2821,-5.2848,-5.2918,-5.2946,-5.2983,-5.3016,-5.3099,-5.3148,-5.3166,-5.3201,-5.3261,-5.3314,-5.332,-5.3342,-5.3364,-5.3367,-5.326,-5.3245,-5.3232,-5.3213,-5.3369,-5.3369,-5.3478,-5.3479,-5.348]}]]